www.pogodaiklimat.ru

Погода и климат >> Архив погоды >> Мексика >> Tulancingo


ПОГОДА в Tulancingo

  • Прогноз погоды в Tulancingo
  • Монитор погоды в Tulancingo
  • Климат города

АРХИВ ПОГОДЫ в Tulancingo

Время (UTC), дата Ветер
(напр.,м/с)
 
Видим.   Явления Облачность Т
(С)
Тd
(С)
f
(%)
Тe
(С)
Тes
(С)
Комфортность P
(гПа)
Po
(гПа)
Тmin
(С)
Tmax
(С)
R
(мм)
R24
(мм)
S
(см)
12 14.06 З 1 1000 м в посл. час переохл. осадки {морось, туман} 10/10 300 м
[St]
+13.8 +13.5 98 +14 +14 1014.3 785.0 0.2
15 14.06 З 21 15 км дымка {туман} 10/10 300 м
[St]
+14.4 +13.5 94 +10 +10 1016.2 786.4
18 14.06 СВ 15 18 км мгла {туман} 10/9 300 м
[St Ac cuf]
+20.2 +15.7 75 +24 +25 комфорт 1015.1 786.1 0.0
21 14.06 СВ 2 5000 м слабая морось {туман} 9/8 450 м
[Frnb As op]
+18.1 +15.7 86 +19 +21 1013.8 786.0 0.2
00 15.06 ЮВ 1 5000 м туман местами {морось} 9/8 300 м
[Frnb Ac trans]
+16.4 +13.9 85 +17 +18 1011.4 784.7 0.3
03 15.06 В 1 5000 м дымка {туман} 10/9 300 м
[Frnb Ac trans]
+15.2 +13.1 87 +16 +16 1012.4 785.7
06 15.06 СВ 1 18 км мгла 6/4 450 м
[St Ac cuf]
+14.6 +12.8 89 +15 +15 1013.6 786.2 +13.0 +21.8
09 15.06 В 1 18 км мгла 6/4 450 м
[St Ac cuf]
+13.8 +12.6 92 +14 +14 1012.9 784.8
12 15.06 СВ 1 15 км туман местами 10/10 450 м
[St]
+13.4 +12.5 94 +13 +13 1013.8 784.8 +12.3 +21.8
15 15.06 ЮВ 1 18 км мгла {туман} 10/10 450 м
[St]
+16.2 +12.6 79 +17 +17 1014.6 785.4
18 15.06 СВ 1 20 км мгла {туман} 4/3 600 м
[Cu med, cong Ac trans]
+23.2 +14.0 56 +27 +43 душно 1012.4 784.6 +12.3 +24.2
21 15.06 СВ 3 18 км мгла 9/6 600 м
[Cb calv Ac trans Ci fib]
+24.8 +15.4 56 +28 +31 жарко 1008.3 783.2
00 16.06 СЗ 1 18 км туман 9/9 600 м
[Cb calv]
+17.9 +15.0 83 +19 +19 1007.3 783.3 0.7
03 16.06 В 2 18 км мгла 9/4 800 м
[Sc diur, vesp Ac inh]
+17.2 +14.6 85 +18 +18 1008.2 784.3
06 16.06 В 2 18 км мгла 6/1 600 м
[Sc diur, vesp Ac cuf]
+15.8 +14.3 91 +16 +16 1009.5 784.6 +12.3 +26.0
09 16.06 В 1 18 км мгла 4/1 300 м
[St Ac cuf]
+15.0 +14.1 94 +15 +15 1009.9 783.5
12 16.06 В 1 15 км в посл. час морось {туман} 10/5 600 м
[Sc diur, vesp Ac As]
+14.8 +13.6 93 +15 +15 1010.8 783.5 0.2
15 16.06 В 1 18 км дымка {туман} 9/4 450 м
[Sc diur, vesp Ac As]
+17.8 +14.0 78 +19 +22 1012.2 784.4
18 16.06 ЮВ 1 20 км мгла {туман} 8/8 600 м
[Sc diur, vesp]
+24.0 +14.3 55 +27 +32 жарко 1010.0 783.8 +13.6 +25.5
21 16.06 В 3 20 км 8/8 600 м
[Sc diur, vesp]
+23.4 +14.9 59 +27 +30 душно 1006.7 782.4
00 17.06 В 3 20 км 9/9 300 м
[Sc diur, vesp]
+20.2 +15.1 72 +23 +23 комфорт 1005.6 782.5 +13.6 +25.5
03 17.06 ЮВ 2 10 км мгла 9/9 600 м
[Sc diur, vesp]
+17.6 +13.2 75 +18 +18 1007.5 784.3
06 17.06 ЮЗ 2 18 км мгла 1/1 800 м
[Sc]
+15.2 +11.9 81 +15 +15 1009.8 785.0 +13.6 +25.5
09 17.06 штиль 0 18 км мгла ясно +13.6 +11.5 87 +13 +13 1009.9 783.7
12 17.06 штиль 0 20 км мгла 8/1
[Cb calv Ci]
+14.2 +11.8 85 +14 +14 1011.5 783.8 +13.2 +25.5
15 17.06 штиль 0 20 км 1/1 800 м
[Cu hum]
+20.2 +13.5 65 +22 +33 комфорт 1012.3 784.4
18 17.06 штиль 0 20 км 6/6 800 м
[Cu med, cong]
+25.6 +15.6 54 +29 +40 душно 1009.7 783.7 +13.2 +26.7
21 17.06 ЮВ 1 18 км слабый дождь 9/8 600 м
[Cb cap As op]
+17.0 +13.3 79 +18 +20 1008.6 783.9 0.9
00 18.06 СЗ 1 10 км туман {дождь} 9/9 300 м
[Cb cap]
+18.5 +15.2 81 +20 +20 1007.1 783.3 1
03 18.06 В 1 10 км слабый дождь {туман} 10/10 450 м
[Cb cap]
+16.6 +15.1 91 +17 +17 1009.5 785.1 3
06 18.06 СВ 1 18 км мгла {морось} 5/4 300 м
[St Ac trans]
+15.6 +14.7 94 +16 +16 1011.3 785.1 3
12 18.06 СВ 1 18 км мгла 6/4 450 м
[St Ac cuf]
+15.2 +14.0 93 +16 +16 1012.1 784.5 +14.1 +27.7
15 18.06 ЮВ 1 18 км мгла {туман} 10/4 600 м
[Sc diur, vesp Ac As Ci]
+18.4 +13.7 74 +20 +23 1013.1 785.3
18 18.06 З 1 20 км мгла {туман} 10/4 600 м
[Sc diur, vesp Ac inh]
+21.0 +13.4 62 +25 +29 комфорт 1012.1 785.2 +14.1 +21.3
21 18.06 ЮВ 1 10 км осадки на расстоянии 10/5 600 м
[Cb cap As op]
+20.1 +14.2 69 +23 +25 комфорт 1009.5 784.2
00 19.06 штиль 0 18 км в посл. час дождь {туман} 10/3 300 м
[Cb calv As op]
+16.2 +13.9 86 +16 +16 1009.9 784.5 6
03 19.06 штиль 0 18 км слабый дождь 10/3 800 м
[Sc diur, vesp Ac inh]
+14.8 +14.5 98 +14 +14 1011.3 785.4 0.2
06 19.06 В 1 18 км слабый дождь {туман} 10/3 300 м
[Frnb As op]
+15.2 +14.3 94 +16 +16 1013.0 785.9 0.4
09 19.06 В 2 18 км слабый дождь {туман} 10/1 800 м
[Sc diur, vesp Ac inh]
+14.6 +13.4 93 +14 +14 1012.3 784.4 1
12 19.06 В 2 20 км {дождь} 10/1 1000 м
[Sc diur, vesp Ac As]
+15.0 +12.6 86 +15 +15 1012.5 784.3 2
15 19.06 Ю 1 20 км мгла {туман} 9/3 800 м
[Sc diur, vesp Ac und]
+17.2 +12.7 75 +18 +21 1013.3 785.0
18 19.06 ЮЗ 1 20 км мгла {туман} 10/4 800 м
[Cu med, cong Ac As]
+22.4 +12.8 55 +25 +30 комфорт 1011.9 784.8 +14.0 +23.0
21 19.06 ЮЗ 1 20 км мгла 10/9 600 м
[Frnb As op]
+21.8 +14.0 61 +25 +25 комфорт 1009.0 783.8
00 20.06 СВ 1 3000 м слабый дождь 10/8 300 м
[Frnb As op]
+17.2 +14.9 86 +18 +18 1008.1 784.0 0.0
03 20.06 В 1 15 км в посл. час переохл. осадки {дождь} 10/8 450 м
[Frnb As op]
+16.4 +15.2 93 +17 +17 1009.2 788.9 0.2
06 20.06 СВ 1 15 км мгла {морось} 6/3 600 м
[Sc diur, vesp As op]
+15.6 +15.0 96 +16 +16 1010.4 785.0 0.4
09 20.06 В 1 5000 м дымка {дождь, туман} 10/8 300 м
[Frnb As op]
+14.8 +14.2 96 +15 +15 1010.8 784.1 0.6
12 20.06 СВ 1 15 км мгла {дождь} 9/3 300 м
[Frnb As op]
+14.8 +13.9 94 +15 +15 1012.1 784.2 1
15 20.06 ЮЗ 1 20 км мгла {туман} 10/0
[Ac As]
+17.6 +9.8 60 +19 +22 1012.6 784.6
18 20.06 З 1 20 км мгла {туман} 10/1 800 м
[Cu med, cong Ac As]
+19.4 +10.6 57 +22 +28 комфорт 1012.2 784.8 +13.6 +20.5
21 20.06 ЮЗ 1 20 км мгла 10/6 600 м
[Frnb As op]
+20.2 +14.1 68 +24 +25 комфорт 1010.0 784.2
00 21.06 ЮЗ 2 20 км мгла 10/3 300 м
[St As op]
+19.6 +13.2 67 +22 +22 комфорт 1008.5 783.8 0.0
03 21.06 В 2 18 км мгла 9/1 800 м
[Sc diur, vesp Ac As]
+17.8 +14.3 80 +18 +18 1009.1 784.6
06 21.06 З 2 18 км мгла {дождь} 9/0
[Ac As]
+14.2 +11.8 85 +14 +14 1010.8 785.3 0.5

 

Местоположение метеостанции Tulancingo (Мексика): широта 20.08 долгота -98.37 высота над уровнем моря 2181 м.

В архиве по умолчанию представлена погода в Tulancingo за последнюю неделю. Архивные данные за месяц целиком и за предыдущие месяцы, начиная с января 2011 года, Вы можете получить, выбрав интересующий диапазон дат из раскрывающегося списка и нажав кнопку "Ввод!".


*Определитесь, кто Вы:
робот инопланетянин человек

Внимание! Время в таблицах - всемирное. Для получения местного времени необходимо прибавить поправку, которая в Tulancingo равна -6 ч.

Смотрите также архив погоды в соседних городах и на ближайших метеорологических станциях:

Погода в Pachuca (Мексика) (40 км)
Погода в Tlaxcala (Мексика) (85 км)
Погода в Tlaxcala Airport (Мексика) (87 км)
Погода в Mexico City (Мексика) (114 км)
Погода в Puebla (Мексика) (117 км)
Погода в Institute of Geography (Мексика) (120 км)
Погода в Tuxpan (Мексика) (140 км)
Погода в Matlapa (Мексика) (145 км)
Погода в Cuernavaca (Мексика) (161 км)
Погода в Toluca (Мексика) (164 км)

Пояснения к столбцам:

Ветер - указаны скорость ветра в м/с - средняя за 10 мин, порывы в срок и между сроками (в фигурных скобках) и направление, откуда дует ветер: С - северный, СВ - северо-восточный, В - восточный, ЮВ - юго-восточный, Ю - южный, ЮЗ - юго-западный, З - западный, СЗ - северо-западный.
Видимость - горизонтальная дальность видимости в метрах или километрах. При видимости от 1 до 10 км при отсутствии осадков обычно наблюдается дымка, при ухудшении видимости до 1 км и менее - туман. В сухую погоду видимость может ухудшаться дымом, пылью или мглою.
Явления - указаны атмосферные явления, наблюдавшиеся в срок или в последний час перед сроком; фигурными скобками обозначены явления, наблюдавшиеся между сроками (за 1-3 часа до срока); квадратными скобками обозначены град или гололедные отложения с указанием их диаметра в мм.
Облачность - указаны через наклонную черту общая и нижняя облачность в баллах и высота нижней границы облаков в метрах; квадратными скобками обозначены формы облаков: Ci - перистые, Cs - перисто-слоистые, Cc - перисто-кучевые, Ac - высококучевые, As - высокослоистые, Sc - слоисто-кучевые, Ns - слоисто-дождевые, Cu - кучевые, Cb - кучево-дождевые. Подробнее классификацию облаков см. в Атласе облаков (PDF).
T - Температура воздуха - температура, измеренная на высоте 2 м над землей.
Td - Температура точки росы - температура, при понижении до которой содержащийся в воздухе водяной пар достигнет насыщения.
f - Относительная влажность воздуха - влажноcть воздуха, измеренная на высоте 2 м над землей.
Te - Эффективная температура - температура, которую ощущает одетый по сезону человек в тени. Характеристика душности погоды. При расчете учитывается влияние влажности воздуха и скорости ветра на теплоощущения человека.
Tes - Эффективная температура на солнце - температура, которую ощущает человек, с поправкой на солнечный нагрев. Характеристика знойности погоды. Зависит от высоты солнца над горизонтом, облачности и скорости ветра. Ночью, в пасмурную погоду, а также при ветре 12 м/с и более поправка равна нулю.
P - Атмосферное давление - приведенное к уровню моря атмосферное давление.
Po - Атмосферное давление - измеренное на уровне метеостанции атмосферное давление.
Tmin - Минимальная температура - минимум температуры воздуха на высоте 2 м над землей.
Tmax - Максимальная температура - максимум температуры воздуха на высоте 2 м над землей.
R - Количество осадков - Количество выпавших осадков за период времени, мм. При наведении курсора мыши на число - период времени, за который выпало указанное количество осадков.
R24 - Количество осадков - Количество выпавших осадков за 24 часа, мм.
S - Снежный покров - Высота снежного покрова, см. При наведении курсора мыши на число - состояние снежного покрова и степень покрытия местности в баллах.